NE1CU Weather Reports


time (UTC)temp
C
wind
direction
speed
KPH
gust
KPH
rain 1hr
cm
rain 24hr
cm
rain mn
cm
humidity
%
barometer
mb
20260506162326 16 199 3.2 3.2 0.00 0.00 0.00 80 1009.7
20260506161823 16 153 6.4 6.4 0.00 0.00 0.00 79 1009.6
20260506161320 16 237 4.8 6.4 0.00 0.00 0.00 78 1009.5
20260506160818 16 187 0.0 1.6 0.00 0.00 0.00 78 1009.7
20260506160314 16 125 4.8 4.8 0.00 0.00 0.00 78 1009.8
20260506155813 16 153 1.6 1.6 0.00 0.00 0.00 77 1009.7
20260506155309 16 150 3.2 3.2 0.00 0.00 0.00 76 1009.8
20260506153421 17 128 9.7 16.1 0.00 0.00 0.00 74 1009.9
20260506152919 17 186 4.8 4.8 0.00 0.00 0.00 75 1009.9
20260506152415 17 203 6.4 9.7 0.00 0.00 0.00 74 1010.2
20260506151914 16 159 4.8 4.8 0.00 0.00 0.00 76 1010.0
20260506151411 16 226 4.8 4.8 0.00 0.00 0.00 75 1009.9
20260506150909 16 207 3.2 3.2 0.00 0.00 0.00 75 1009.7
20260506150404 16 187 3.2 3.2 0.00 0.00 0.00 76 1009.8
20260506145901 16 216 3.2 4.8 0.00 0.00 0.00 76 1009.8
20260506145358 16 186 3.2 3.2 0.00 0.00 0.00 76 1009.7
20260506144855 16 182 6.4 6.4 0.00 0.00 0.00 76 1009.8
20260506144351 16 117 4.8 6.4 0.00 0.00 0.00 76 1009.9
20260506143850 16 214 4.8 4.8 0.00 0.00 0.00 76 1009.8
20260506143346 16 225 3.2 4.8 0.00 0.00 0.00 76 1009.9
20260506142845 17 172 3.2 4.8 0.00 0.00 0.00 75 1010.1
20260506142342 17 159 3.2 4.8 0.00 0.00 0.00 75 1010.3
20260506141841 17 274 1.6 1.6 0.00 0.00 0.00 74 1010.1
20260506141339 17 196 3.2 4.8 0.00 0.00 0.00 74 1010.3
20260506140836 17 208 6.4 9.7 0.00 0.00 0.00 72 1010.0
20260506140333 17 226 3.2 1.6 0.00 0.00 0.00 75 1010.1
20260506135830 17 189 3.2 4.8 0.00 0.00 0.00 76 1010.2
20260506135326 17 250 4.8 6.4 0.00 0.00 0.00 75 1010.3
20260506134823 17 211 3.2 4.8 0.00 0.00 0.00 75 1010.4
20260506134319 16 216 3.2 3.2 0.00 0.00 0.00 75 1010.5
20260506133817 17 229 8.0 11.3 0.00 0.00 0.00 75 1010.1
20260506133313 17 145 8.0 11.3 0.00 0.00 0.00 75 1010.2
20260506132810 16 165 3.2 3.2 0.00 0.00 0.00 76 1010.1
20260506132307 16 159 3.2 1.6 0.00 0.00 0.00 77 1009.8
20260506131805 16 191 4.8 4.8 0.00 0.00 0.00 76 1009.9
20260506131301 16 152 3.2 4.8 0.00 0.00 0.00 76 1010.0
20260506130758 16 194 4.8 4.8 0.00 0.00 0.00 76 1009.9
20260506130254 16 188 1.6 1.6 0.00 0.00 0.00 77 1010.0
20260506125753 16 136 3.2 3.2 0.00 0.00 0.00 76 1009.9
20260506125250 16 253 3.2 4.8 0.00 0.00 0.00 75 1010.0
20260506124749 17 118 1.6 1.6 0.00 0.00 0.00 75 1010.0
20260506124246 16 196 3.2 3.2 0.00 0.00 0.00 76 1010.2
20260506123743 17 152 8.0 9.7 0.00 0.00 0.00 75 1010.3
20260506123242 17 128 4.8 6.4 0.00 0.00 0.00 76 1010.3
20260506122738 16 131 3.2 4.8 0.00 0.00 0.00 77 1010.5
20260506122235 16 114 6.4 9.7 0.00 0.00 0.00 77 1010.6
20260506121734 16 202 3.2 3.2 0.00 0.00 0.00 78 1010.5
20260506121230 16 220 6.4 6.4 0.00 0.00 0.00 78 1010.5
20260506120727 16 150 1.6 1.6 0.00 0.00 0.00 79 1010.4
20260506120225 16 241 3.2 3.2 0.00 0.00 0.00 80 1010.4
20260506115723 15 131 3.2 4.8 0.00 0.00 0.00 80 1010.3
20260506115220 15 169 1.6 1.6 0.00 0.00 0.00 80 1010.3
20260506114718 15 177 3.2 3.2 0.00 0.00 0.00 81 1010.4
20260506114216 15 75 1.6 1.6 0.00 0.00 0.00 82 1010.3
20260506113714 15 135 4.8 6.4 0.00 0.00 0.00 83 1010.3
20260506113211 15 186 4.8 4.8 0.00 0.00 0.00 84 1010.3
20260506112707 15 186 4.8 4.8 0.00 0.00 0.00 83 1010.4
20260506112205 15 156 4.8 6.4 0.00 0.00 0.00 84 1010.4
20260506111702 15 141 6.4 11.3 0.00 0.00 0.00 84 1010.4
20260506111200 14 249 3.2 3.2 0.00 0.00 0.00 84 1010.5
20260506110657 14 163 3.2 3.2 0.00 0.00 0.00 85 1010.5
20260506110155 14 248 1.6 1.6 0.00 0.00 0.00 85 1010.5
20260506105651 14 120 1.6 1.6 0.00 0.00 0.00 85 1010.6
20260506105148 14 152 1.6 1.6 0.00 0.00 0.00 86 1010.5
20260506104646 13 195 3.2 4.8 0.00 0.00 0.00 86 1010.4
20260506104143 13 159 3.2 3.2 0.00 0.00 0.00 87 1010.2
20260506103640 13 181 3.2 4.8 0.00 0.00 0.00 87 1010.2
20260506103137 13 120 1.6 1.6 0.00 0.00 0.00 87 1010.4
20260506102635 13 190 4.8 4.8 0.00 0.00 0.00 87 1010.5
20260506102132 13 142 1.6 1.6 0.00 0.00 0.00 88 1010.3
20260506101629 13 121 1.6 0.0 0.00 0.00 0.00 88 1010.3
20260506101126 13 136 1.6 1.6 0.00 0.00 0.00 88 1010.3
20260506100625 13 164 0.0 0.0 0.00 0.00 0.00 87 1010.2
20260506100122 13 139 1.6 1.6 0.00 0.00 0.00 88 1010.2
20260506095621 13 197 4.8 4.8 0.00 0.00 0.00 87 1010.2
20260506095117 13 156 1.6 3.2 0.00 0.00 0.00 87 1010.3
20260506094615 13 157 1.6 1.6 0.00 0.00 0.00 87 1010.1
20260506094112 13 227 3.2 3.2 0.00 0.00 0.00 87 1010.2
20260506093610 13 151 1.6 1.6 0.00 0.00 0.00 87 1010.2
20260506093107 13 210 1.6 1.6 0.00 0.00 0.00 87 1010.0
20260506092605 13 203 3.2 3.2 0.00 0.00 0.00 87 1009.9
20260506092101 13 170 3.2 4.8 0.00 0.00 0.00 86 1010.2
20260506091600 13 182 1.6 1.6 0.00 0.00 0.00 86 1010.3
20260506091057 13 166 1.6 1.6 0.00 0.00 0.00 86 1010.3
20260506090555 13 204 3.2 3.2 0.00 0.00 0.00 86 1010.4
20260506090051 13 231 3.2 3.2 0.00 0.00 0.00 86 1010.2
20260506085548 13 148 3.2 3.2 0.00 0.00 0.00 86 1010.3
20260506085044 13 182 1.6 1.6 0.00 0.00 0.00 86 1010.3
20260506084541 13 178 3.2 4.8 0.00 0.00 0.00 85 1010.4
20260506084037 13 180 3.2 3.2 0.00 0.00 0.00 85 1010.5
20260506083535 13 211 3.2 3.2 0.00 0.00 0.00 85 1010.6
20260506083032 13 239 3.2 3.2 0.00 0.00 0.00 85 1010.5
20260506082529 13 232 1.6 1.6 0.00 0.00 0.00 85 1010.3
20260506082024 13 152 1.6 1.6 0.00 0.00 0.00 85 1010.4
20260506081522 13 215 1.6 1.6 0.00 0.00 0.00 84 1010.6
20260506081020 13 163 3.2 3.2 0.00 0.00 0.00 84 1010.7
20260506080517 13 191 3.2 3.2 0.00 0.00 0.00 84 1010.4
20260506073501 13 248 3.2 3.2 0.00 0.00 0.00 83 1010.6
20260506072958 13 150 4.8 4.8 0.00 0.00 0.00 83 1010.7
20260506072455 13 171 1.6 1.6 0.00 0.00 0.00 83 1010.7
20260506071953 14 182 1.6 1.6 0.00 0.00 0.00 82 1010.5
20260506071450 14 166 3.2 3.2 0.00 0.00 0.00 82 1010.7
20260506070947 14 132 3.2 4.8 0.00 0.00 0.00 82 1010.5
20260506070444 14 142 4.8 6.4 0.00 0.00 0.00 82 1010.6
20260506062422 14 175 3.2 3.2 0.00 0.00 0.00 81 1010.6
20260506061918 14 165 1.6 1.6 0.00 0.00 0.00 81 1010.5
20260506061415 14 144 3.2 3.2 0.00 0.00 0.00 80 1010.6
20260506060912 14 217 3.2 3.2 0.00 0.00 0.00 80 1010.6
20260506060410 14 261 3.2 4.8 0.00 0.00 0.00 79 1010.7
20260506051342 15 217 3.2 1.6 0.00 0.00 0.00 76 1010.7
20260506050840 15 216 3.2 4.8 0.00 0.00 0.00 76 1010.8
20260506050337 15 149 3.2 3.2 0.00 0.00 0.00 76 1010.8
20260506044827 15 225 4.8 4.8 0.00 0.00 0.00 75 1011.0
20260506044325 16 191 3.2 1.6 0.00 0.00 0.00 75 1010.9
20260506043822 16 204 3.2 3.2 0.00 0.00 0.00 74 1010.8
20260506043319 16 180 1.6 1.6 0.00 0.00 0.00 74 1010.9
20260506042818 16 239 3.2 3.2 0.00 0.00 0.00 73 1011.0
20260506042316 16 149 1.6 3.2 0.00 0.00 0.00 73 1011.0
20260506041815 16 198 3.2 3.2 0.00 0.00 0.00 73 1010.8
20260506041311 16 174 3.2 3.2 0.00 0.00 0.00 73 1010.9
20260506040809 16 150 3.2 3.2 0.00 0.00 0.00 73 1011.0
20260506040306 16 263 4.8 6.4 0.00 0.00 0.00 73 1011.0
20260506035802 16 215 3.2 3.2 0.00 0.00 0.00 72 1010.9
20260506035259 16 125 3.2 3.2 0.00 0.00 0.00 72 1011.0
20260506034756 16 232 6.4 9.7 0.00 0.00 0.00 72 1011.0
20260506034254 16 173 3.2 4.8 0.00 0.00 0.00 71 1010.9
20260506033750 16 152 1.6 1.6 0.00 0.00 0.00 71 1011.0
20260506033247 16 143 3.2 4.8 0.00 0.00 0.00 71 1011.0
20260506032744 16 174 4.8 4.8 0.00 0.00 0.00 71 1010.9
20260506032241 16 125 1.6 1.6 0.00 0.00 0.00 71 1010.8
20260506031738 16 153 3.2 4.8 0.00 0.00 0.00 71 1010.8
20260506031235 16 227 3.2 4.8 0.00 0.00 0.00 71 1010.9
20260506030733 16 205 3.2 6.4 0.00 0.00 0.00 71 1011.0
20260506030230 16 111 1.6 1.6 0.00 0.00 0.00 71 1011.0
20260506025727 16 208 4.8 4.8 0.00 0.00 0.00 70 1010.9
20260506025224 16 213 4.8 9.7 0.00 0.00 0.00 70 1011.0
20260506024721 16 188 3.2 3.2 0.00 0.00 0.00 70 1011.0
20260506024217 16 258 4.8 4.8 0.00 0.00 0.00 70 1011.0
20260506023714 16 154 3.2 4.8 0.00 0.00 0.00 69 1011.0
20260506023211 16 202 8.0 9.7 0.00 0.00 0.00 69 1011.0
20260506022708 16 152 4.8 11.3 0.00 0.00 0.00 69 1011.2
20260506022205 16 55 1.6 1.6 0.00 0.00 0.00 68 1011.0
20260506021703 16 152 9.7 11.3 0.00 0.00 0.00 68 1011.0
20260506021200 16 237 6.4 9.7 0.00 0.00 0.00 67 1010.8
20260506020657 16 334 3.2 3.2 0.00 0.00 0.00 66 1010.8
20260506020155 17 247 4.8 9.7 0.00 0.00 0.00 66 1010.6
20260506015652 17 151 3.2 3.2 0.00 0.00 0.00 66 1010.6
20260506015149 17 131 3.2 3.2 0.00 0.00 0.00 65 1010.5
20260506014646 17 115 6.4 9.7 0.00 0.00 0.00 65 1010.6
20260506014142 17 70 3.2 4.8 0.00 0.00 0.00 65 1010.5
20260506013640 17 177 1.6 6.4 0.00 0.00 0.00 65 1010.4
20260506013137 17 51 3.2 4.8 0.00 0.00 0.00 65 1010.3
20260506012633 17 255 6.4 11.3 0.00 0.00 0.00 65 1010.4
20260506012130 17 148 3.2 4.8 0.00 0.00 0.00 65 1010.3
20260506011628 17 177 4.8 6.4 0.00 0.00 0.00 65 1010.2
20260506011123 17 247 6.4 6.4 0.00 0.00 0.00 64 1010.1
20260506010622 17 242 8.0 9.7 0.00 0.00 0.00 65 1010.1
20260506010119 17 235 6.4 11.3 0.00 0.00 0.00 65 1010.1
20260506005616 17 239 3.2 3.2 0.00 0.00 0.00 64 1010.1
20260506005112 17 144 3.2 4.8 0.00 0.00 0.00 64 1010.0
20260506004609 17 211 4.8 4.8 0.00 0.00 0.00 63 1009.9
20260506004106 17 266 3.2 4.8 0.00 0.00 0.00 63 1009.8
20260506003603 17 254 4.8 4.8 0.00 0.00 0.00 63 1009.7
20260506003059 17 145 8.0 14.5 0.00 0.00 0.00 63 1009.8
20260506002554 17 248 6.4 6.4 0.00 0.00 0.00 64 1009.6
20260506002051 17 158 3.2 3.2 0.00 0.00 0.00 64 1009.7
20260506001547 17 136 3.2 3.2 0.00 0.00 0.00 64 1009.8
20260506001044 17 128 3.2 4.8 0.00 0.00 0.00 64 1009.6
20260506000542 17 147 4.8 4.8 0.00 0.00 0.00 64 1009.5
20260506000039 17 255 3.2 3.2 0.00 0.00 0.00 63 1009.4
20260505235537 17 88 6.4 6.4 0.00 0.00 0.00 62 1009.2
20260505235034 17 143 3.2 3.2 0.00 0.00 0.00 62 1009.2
20260505234531 17 264 6.4 9.7 0.00 0.00 0.00 62 1009.0
20260505234027 17 173 4.8 4.8 0.00 0.00 0.00 62 1009.1
20260505233525 17 209 3.2 4.8 0.00 0.00 0.00 61 1009.1
20260505233022 17 196 3.2 3.2 0.00 0.00 0.00 61 1008.7
20260505232520 17 85 1.6 1.6 0.00 0.00 0.00 61 1008.7
20260505232017 17 232 1.6 1.6 0.00 0.00 0.00 61 1008.8
20260505231514 18 192 3.2 3.2 0.00 0.00 0.00 60 1008.9
20260505231013 18 217 4.8 6.4 0.00 0.00 0.00 60 1008.7
20260505230509 18 130 1.6 1.6 0.00 0.00 0.00 59 1008.7
20260505230006 18 210 3.2 3.2 0.00 0.00 0.00 59 1008.7
20260505225503 18 215 1.6 3.2 0.00 0.00 0.00 59 1008.4
20260505224959 18 154 3.2 3.2 0.00 0.00 0.00 59 1008.4
20260505224456 19 112 3.2 3.2 0.00 0.00 0.00 58 1008.3
20260505223953 20 16 1.6 1.6 0.00 0.00 0.00 57 1008.6
20260505223450 20 147 6.4 11.3 0.00 0.00 0.00 56 1008.8
20260505222946 20 245 4.8 6.4 0.00 0.00 0.00 56 1008.6
20260505222443 20 238 3.2 4.8 0.00 0.00 0.00 55 1008.5
20260505221939 20 199 1.6 3.2 0.00 0.00 0.00 55 1008.5
20260505221436 20 93 3.2 3.2 0.00 0.00 0.00 55 1008.8
20260505220933 20 241 1.6 1.6 0.00 0.00 0.00 55 1008.6
20260505220430 20 141 4.8 6.4 0.00 0.00 0.00 54 1008.7
20260505215928 20 297 1.6 1.6 0.00 0.00 0.00 55 1008.6
20260505215426 20 145 4.8 4.8 0.00 0.00 0.00 55 1008.4
20260505214923 20 176 3.2 3.2 0.00 0.00 0.00 55 1008.5
20260505214421 21 219 9.7 12.9 0.00 0.00 0.00 54 1008.8
20260505213918 21 142 3.2 3.2 0.00 0.00 0.00 55 1008.6
20260505213416 21 160 4.8 4.8 0.00 0.00 0.00 53 1008.5
20260505212912 21 227 6.4 6.4 0.00 0.00 0.00 53 1008.4
20260505212408 21 202 3.2 3.2 0.00 0.00 0.00 52 1008.4
20260505211905 21 66 3.2 4.8 0.00 0.00 0.00 54 1008.6
20260505211403 21 114 3.2 3.2 0.00 0.00 0.00 53 1008.2
20260505210859 21 154 3.2 3.2 0.00 0.00 0.00 54 1008.4
20260505210356 21 139 3.2 3.2 0.00 0.00 0.00 54 1008.5
20260505205852 21 131 6.4 6.4 0.00 0.00 0.00 53 1008.6
20260505205351 22 218 4.8 9.7 0.00 0.00 0.00 52 1008.5
20260505204848 22 202 4.8 4.8 0.00 0.00 0.00 52 1008.4
20260505204345 22 158 4.8 4.8 0.00 0.00 0.00 53 1008.5
20260505203842 22 240 8.0 11.3 0.00 0.00 0.00 52 1008.3
20260505203339 22 216 6.4 9.7 0.00 0.00 0.00 50 1008.4
20260505202835 22 207 4.8 6.4 0.00 0.00 0.00 51 1008.5
20260505202331 23 198 3.2 6.4 0.00 0.00 0.00 50 1008.5
20260505201828 22 100 1.6 1.6 0.00 0.00 0.00 53 1008.6
20260505201326 22 244 4.8 4.8 0.00 0.00 0.00 50 1008.6
20260505200824 22 42 3.2 3.2 0.00 0.00 0.00 51 1008.7
20260505200320 23 227 6.4 12.9 0.00 0.00 0.00 51 1008.7
20260505195816 22 250 8.0 9.7 0.00 0.00 0.00 50 1008.7
20260505195314 23 179 3.2 3.2 0.00 0.00 0.00 52 1008.8
20260505194810 22 133 1.6 1.6 0.00 0.00 0.00 53 1008.8
20260505194308 23 105 8.0 11.3 0.00 0.00 0.00 51 1008.7
20260505193803 23 236 6.4 9.7 0.00 0.00 0.00 50 1008.7
20260505193301 22 149 6.4 6.4 0.00 0.00 0.00 54 1009.0
20260505192759 22 188 6.4 11.3 0.00 0.00 0.00 53 1008.9
20260505192256 23 110 4.8 4.8 0.00 0.00 0.00 53 1008.9
20260505191754 22 201 6.4 6.4 0.00 0.00 0.00 52 1009.1
20260505191252 23 174 8.0 12.9 0.00 0.00 0.00 51 1009.4
20260505190748 23 173 6.4 6.4 0.00 0.00 0.00 53 1009.3
20260505190243 23 165 6.4 9.7 0.00 0.00 0.00 51 1009.5
20260505185740 23 210 6.4 6.4 0.00 0.00 0.00 52 1009.5
20260505185237 23 166 4.8 6.4 0.00 0.00 0.00 54 1009.5
20260505184732 23 248 4.8 6.4 0.00 0.00 0.00 51 1009.7
20260505184230 23 146 8.0 12.9 0.00 0.00 0.00 52 1009.6
20260505183727 22 227 3.2 4.8 0.00 0.00 0.00 55 1009.5
20260505183224 23 135 6.4 11.3 0.00 0.00 0.00 53 1009.5
20260505182720 23 141 4.8 4.8 0.00 0.00 0.00 53 1009.5
20260505182218 23 208 9.7 11.3 0.00 0.00 0.00 51 1009.4
20260505181714 23 186 6.4 6.4 0.00 0.00 0.00 52 1009.5
20260505181212 23 179 8.0 9.7 0.00 0.00 0.00 51 1009.6
20260505180708 23 174 6.4 6.4 0.00 0.00 0.00 52 1009.6
20260505180205 23 217 4.8 4.8 0.00 0.00 0.00 52 1009.5
20260505175700 22 171 6.4 6.4 0.00 0.00 0.00 52 1009.6
20260505175157 23 149 6.4 6.4 0.00 0.00 0.00 53 1009.6
20260505174654 23 176 6.4 6.4 0.00 0.00 0.00 52 1009.7
20260505174150 23 185 8.0 9.7 0.00 0.00 0.00 52 1009.6
20260505173647 23 165 4.8 4.8 0.00 0.00 0.00 54 1009.6
20260505173144 23 236 6.4 6.4 0.00 0.00 0.00 52 1009.7
20260505172641 23 166 1.6 3.2 0.00 0.00 0.00 53 1009.6
20260505172138 24 164 6.4 9.7 0.00 0.00 0.00 50 1009.8
20260505171637 23 197 3.2 3.2 0.00 0.00 0.00 51 1010.0
20260505171135 23 197 4.8 4.8 0.00 0.00 0.00 51 1009.8
20260505170632 23 244 4.8 4.8 0.00 0.00 0.00 55 1009.7
20260505170128 23 125 3.2 4.8 0.00 0.00 0.00 55 1010.0
20260505165623 23 138 3.2 3.2 0.00 0.00 0.00 54 1009.9
20260505165120 23 175 1.6 1.6 0.00 0.00 0.00 55 1009.9
20260505164615 23 164 4.8 4.8 0.00 0.00 0.00 53 1009.9
20260505164113 23 138 1.6 1.6 0.00 0.00 0.00 55 1010.0
20260505163612 23 261 4.8 6.4 0.00 0.00 0.00 51 1010.0
20260505163109 22 142 3.2 3.2 0.00 0.00 0.00 54 1010.2